Location: Newark
(48.8833°N, 0.9236°W)
Time: 06:22:31
(UTC+00:00)

Tiros 1 despin weight - Pass Details

Date: 23 November 2019
Orbit: 594 x 642 km, 48.2° (Epoch: 12 December)

Event Time Altitude Azimuth Distance (km) Brightness Sun altitude
Rises 17:00:40 0° 283° (WNW) 2,840 ? -7.5°
Reaches altitude 10° 17:03:07 10° 273° (W) 1,941 ? -7.9°
Maximum altitude 17:07:05 33° 210° (SSW) 1,029 ? -8.5°
Drops below altitude 10° 17:11:06 10° 147° (SSE) 1,957 ? -9.1°
Sets 17:13:34 0° 137° (SE) 2,867 ? -9.5°
